STARLINK-32637, 62032

Orbit data source: Space-Track

STARLINK-32637, 62032 is a payload satellite owned by SpaceX/Seattle (US) in LEO that was launched on Thu, 21 Nov 2024 UTC via an FALCON 9 launch vehicle from the Air Force Eastern Test Range (AFETR). Payload-class satellites include a variety of spacecraft equipped with specific instruments for various scientific and technological missions. These include communications satellites like Starlink; space stations such as the ISS; scientific satellites like the Hubble; Earth observation satellites from companies like Planet Labs, Umbra, and HawkEye 360; GPS; miniature CubeSats for education and research; and military/defense satellites.

Loading next visibility...
Identifier
62032, 2024-216A
Orbit
LEO
Country
Flag of USUS
Related business
Manufacturer
SpaceX/Seattle
Mission
Operational Commercial Communications
Bus & Motor
STARLINK V2M, Unknown motor
Mass
730 kg wet, ~700 kg dry
Launch date (UTC)
2024-11-21 (11 months ago)
Launch vehicle
FALCON 9
Launch site
Air Force Eastern Test Range (AFETR)
Object type
Payload
Rocket body
Debris
Shape & HBR
Box + 2 Pan, 17.7 m
Radar Cross Section
33.884 m², Large (>1 m²)

Expand to show TLE details & history
Last TLE update: 11 hours ago

TLE from 11 hours ago
0 STARLINK-32637
1 62032U 24216A   25298.03537725  .00029644  00000-0  10817-2 0  9990
2 62032  42.9974 302.0345 0000192 220.6429 139.4408 15.27601738 53135
Epoch: 2025-10-25T00:50Z
TLE epoch observation values (Epoch: 2025-10-25T00:50:56.594Z)
Latitude
-0.00003°
Longitude
-104.37305°
Altitude
482.859 km
Speed
7.626 km/s
True Right ascension
20h 08m 08s
True Declination
0° 00' 00"
Sunlit
Object was in daylight at epoch
Visualization orbit readout
Latitude
Unknown
Longitude
Unknown
Altitude
Unknown
Speed
Unknown
Apparent Right ascension
Unknown
Apparent Declination
Unknown
Sunlit
N/A
Visualization observer readout
Local Sidereal Time
07:36:35
Azimuth
Unknown
Elevation
Unknown
Doppler factor
Unknown
Orbital elements
Apogee altitude
485.061 km
Perigee altitude
484.798 km
Semi-major axis
6,863.067 km
Eccentricity
0.00002
Inclination
42.9974°
RAAN
302.0345°
Arg. of periapsis
220.6429°
True anomaly
139.44223°
Mean anomaly
139.4408°
Eccentric anomaly
139.44152°
Mean motion
3.81738 °/min
Orbital period
94.31 mins
BSTAR
0.0010817
Loading maneuver chart data...
Computing Atmospheric mass density...
Loading historical data...
Loading historical data...
Loading historical data...
Loading historical data...
Loading historical data...
Loading historical data...
Loading historical data...

Documentation

Showing up to 5 results
|